Location: Sea Ranch
(38.7150°N, 123.4530°W)
Time: 02:08:26
(UTC-07:00)

ISS - Visible Passes

Search period start: 04 August 2020 00:00
Search period end: 14 August 2020 00:00
Orbit: 418 x 420 km, 51.6° (Epoch: 04 August)

Date Brightness Start Highest point End Pass type
(mag) Time Alt. Az. Time Alt. Az. Time Alt. Az.
04 Aug -2.0 21:34:19 10° WNW 21:37:08 25° SW 21:39:09 15° S visible
05 Aug -2.9 20:46:26 10° WNW 20:49:40 44° SW 20:52:53 10° SSE visible
07 Aug -1.1 20:49:05 10° W 20:51:00 14° SW 20:52:54 10° SSW visible
